AO-07 1 07530U 74089B 18130.90666321 -.00000034 00000-0 69106-4 0 9993 2 07530 101.6838 98.7905 0012497 48.5870 13.2602 12.53632449989927 UO-11 1 14781U 84021B 18130.62083932 .00000106 00000-0 19281-4 0 9994 2 14781 097.6529 168.4313 0007975 196.4431 163.6526 14.83001529817876 LO-19 1 20442U 90005G 18130.43521437 -.00000005 00000-0 14459-4 0 9991 2 20442 098.6079 069.1639 0010600 261.3971 098.6012 14.32894637478421 HUBBLE 1 20580U 90037B 18130.09557266 .00000518 00000-0 20814-4 0 9990 2 20580 28.4705 6.9127 0002870 91.5164 34.6925 15.09032286339719 MET-2/21 1 22782U 93055A 18130.50240520 .00000045 00000-0 27375-4 0 9991 2 22782 082.5462 123.8409 0021156 230.5779 243.3692 13.83808729246690 AO-27 1 22825U 93061C 18130.71775878 .00000010 00000-0 21528-4 0 9994 2 22825 98.8598 106.1603 0009543 95.2440 264.9831 14.30029400284213 IO-26 1 22826U 93061D 18130.53339841 .00000018 00000-0 24639-4 0 9995 2 22826 098.8539 106.0152 0010074 086.6015 273.6319 14.30360760284125 FO-29 1 24278U 96046B 18130.59137346 -.00000003 00000-0 33148-4 0 9996 2 24278 098.5206 334.5246 0349854 208.3253 149.8468 13.53083531072908 NOAA-15 1 25338U 98030A 18130.57868165 .00000044 00000-0 37425-4 0 9993 2 25338 098.7714 146.9820 0010018 342.9151 017.1690 14.25850338039403 GO-32 1 25397U 98043D 18130.71180303 -.00000015 00000-0 12648-4 0 9998 2 25397 98.6475 71.7756 0002256 109.4666 250.6756 14.23644995 30390 ISS 1 25544U 98067A 18130.73760359 .00003171 00000-0 54904-4 0 9991 2 25544 51.6417 205.3936 0003324 65.1735 80.0101 15.54246051112695 NO-44 1 26931U 01043C 18130.60015397 -.00000001 00000-0 31261-4 0 9992 2 26931 067.0511 326.3960 0007325 279.6788 080.3485 14.30504013867107 SO-50 1 27607U 02058C 18130.59456014 -.00000004 00000-0 20241-4 0 9992 2 27607 064.5550 204.9426 0061069 336.7782 023.0563 14.75446073827281 CO-55 1 27844U 03031E 18130.59845409 .00000065 00000-0 48877-4 0 9998 2 27844 098.6875 139.8080 0010912 117.3954 242.8335 14.22110725770817 CO-57 1 27848U 03031J 18130.75845330 .00000052 00000-0 43650-4 0 9993 2 27848 98.6962 140.3511 0010697 126.2363 233.9805 14.21715056770749 RS-22 1 27939U 03042A 18130.86943050 .00000103 00000-0 26964-4 0 9992 2 27939 97.9845 270.9799 0011563 266.3955 212.0640 14.66682769781342 NOAA-18 1 28654U 05018A 18130.56017312 -.00000013 00000-0 18347-4 0 9999 2 28654 099.1486 165.2406 0013553 230.0996 129.8984 14.12374893668377 CO-58 1 28895U 05043F 18130.40034829 .00000180 00000-0 43364-4 0 9990 2 28895 97.9039 283.3978 0016784 184.1064 176.0004 14.63540706668353 Falconsat-3 1 30776U 07006E 18130.46916160 .00002687 00000-0 80292-4 0 9990 2 30776 035.4349 146.8365 0002280 035.8106 324.2772 15.34375882618526 CO-65 1 32785U 08021C 18130.52760369 .00000263 00000-0 34098-4 0 9996 2 32785 097.5487 144.5013 0013679 157.0357 203.1474 14.88109283543501 AAUSAT2 1 32788U 08021F 18130.59015404 .00000265 00000-0 29676-4 0 9997 2 32788 097.5247 158.6572 0013449 111.9881 248.2770 14.94316887544462 DO-64 1 32789U 08021G 18130.70566706 .00002315 00000-0 16276-3 0 9996 2 32789 97.5148 186.4600 0013818 69.5414 290.7296 15.05984510546143 CO-66 1 32791U 08021J 18130.74477584 .00000441 00000-0 50471-4 0 9992 2 32791 97.5382 149.9817 0014490 138.3157 221.9169 14.90535026543932 RS-30 1 32953U 08025A 18130.77498776 .00000009 00000-0 -34655-5 0 9993 2 32953 82.5061 35.9457 0018300 294.0210 65.8954 12.43082929452120 PRISM 1 33493U 09002B 18130.78415500 .00000224 00000-0 25470-4 0 9996 2 33493 98.1339 31.4328 0016574 79.4897 280.8202 14.96179511504752 NOAA-19 1 33591U 09005A 18130.59156788 .00000107 00000-0 83181-4 0 9990 2 33591 099.1393 107.8779 0015028 073.6080 286.6741 14.12276632476607 TISAT-1 1 36799U 10035E 18130.86487447 .00000509 00000-0 57878-4 0 9997 2 36799 98.1005 266.1044 0011644 337.1134 22.9563 14.90777660424598 JUGNU 1 37839U 11058B 18129.79271292 .00000311 00000-0 23750-4 0 9991 2 37839 019.9615 270.0683 0018841 183.5395 326.6411 14.12618054339825 SRMSAT 1 37841U 11058D 18129.89623657 .00000315 00000-0 28313-4 0 9995 2 37841 19.9728 317.8532 0011902 70.1519 70.8916 14.10605518339463 AO-71 1 37854U 11061E 18130.59533478 .00001642 00000-0 93038-4 0 9993 2 37854 101.7063 176.3149 0164055 184.9163 175.0445 15.05344574355727 HRBE 1 37855U 11061F 18130.69641723 .00000843 00000-0 51166-4 0 9996 2 37855 101.7193 174.0553 0176959 193.1166 166.5413 15.04321041356013 ALMASAT-1 1 38078U 12006B 18130.84656038 .00041202 41222-5 36558-3 0 9993 2 38078 69.4317 319.9397 0249177 163.5229 323.7929 15.38328585334909 HORYU-2 1 38340U 12025D 18130.57438284 .00000232 00000-0 42191-4 0 9990 2 38340 098.3684 150.9998 0010898 337.2254 022.8469 14.75542814311154 RS-40 1 38735U 12041C 18130.59308551 -.00000001 00000-0 -79140-4 0 9991 2 38735 082.4724 120.0614 0017785 039.3969 320.8400 12.42576379262335 BEESAT-3 1 39134U 13015E 18130.80766383 .00001610 00000-0 85726-4 0 9994 2 39134 64.8647 247.8155 0015686 216.8309 143.1742 15.19079558279228 BEESAT-2 1 39136U 13015G 18130.59309447 .00001072 00000-0 65254-4 0 9992 2 39136 064.8695 264.0655 0024536 239.1337 120.7375 15.16076890278508 ZACUBE-1 1 39417U 13066B 18130.61239395 .00000226 00000-0 35095-4 0 9997 2 39417 097.5903 161.2508 0057513 278.4717 080.9980 14.80922834241236 TRITON-1 1 39427U 13066M 18130.59881789 .00000298 00000-0 55457-4 0 9998 2 39427 097.6406 129.0163 0114657 020.5611 340.0155 14.67651845238873 GOMX-1 1 39430U 13066Q 18130.86059396 .00000275 00000-0 58239-4 0 9999 2 39430 97.6950 110.4296 0153128 88.3713 273.5021 14.59065627237715 LO-74 1 39440U 13066AA 18130.57528323 .00000256 00000-0 42823-4 0 9990 2 39440 097.6033 148.0416 0079397 318.5670 040.9537 14.75658171239174 AO-73 1 39444U 13066AE 18130.62803099 .00000292 00000-0 42700-4 0 9990 2 39444 97.5912 162.7433 0056627 273.8145 85.6595 14.81696543240091 SPROUT 1 39770U 14029E 18130.77202947 .00000632 00000-0 77006-4 0 9998 2 39770 97.8744 232.1350 0008295 341.6429 18.4487 14.86803236214804 DUCHIFAT-1 1 40021U 14033M 18130.32476822 .00000576 00000-0 65176-4 0 9992 2 40021 097.9169 048.9741 0011882 308.3036 051.7112 14.90281672211311 NANOSATCBR1 1 40024U 14033Q 18130.75020112 .00000335 00000-0 41062-4 0 9990 2 40024 97.9106 47.7176 0011145 309.4084 50.6146 14.89548265211307 EO-79 1 40025U 14033R 18130.70948932 .00000350 00000-0 43463-4 0 9999 2 40025 97.9067 46.1822 0011465 313.8232 46.2036 14.88696445211216 DTUSAT-2 1 40030U 14033W 18130.73185615 .00000279 00000-0 36252-4 0 9997 2 40030 97.9015 44.9479 0010803 308.5263 51.4985 14.88305724211161 EO-80 1 40032U 14033Y 18130.72097592 .00000301 00000-0 38708-4 0 9998 2 40032 97.9023 44.9403 0010782 309.0771 50.9485 14.88242617211154 ANTELSAT 1 40034U 14033AA 18130.73031791 .00000243 00000-0 43759-4 0 9997 2 40034 97.8165 8.7255 0058029 319.9933 39.7008 14.73909143209163 VELOX-1 1 40057U 14034E 18130.78854927 .00000345 00000-0 56079-4 0 9994 2 40057 98.1987 241.1981 0012436 89.3270 270.9367 14.77406948208128 DAURIA DX 1 1 40071U 14037C 18130.72333761 .00000135 00000-0 24863-4 0 9998 2 40071 98.3691 260.4263 0009870 82.7652 277.4685 14.81151779207458 UKUBE-1 1 40074U 14037F 18130.85983010 .00000386 00000-0 53783-4 0 9994 2 40074 98.3828 266.2446 0005992 79.7728 280.4169 14.83781241207761 HODOYOSHI-1 1 40299U 14070B 18130.74566538 .00000986 00000-0 45028-4 0 9999 2 40299 97.3770 213.1807 0013948 29.5118 86.7900 15.22859687194784 CHUBUSAT-1 1 40300U 14070C 18130.74069610 .00001105 00000-0 51850-4 0 9995 2 40300 97.3648 209.2339 0021421 37.9813 76.3628 15.21528034194585 QSAT-EOS 1 40301U 14070D 18130.78505738 .00002388 00000-0 98636-4 0 9993 2 40301 97.3595 210.4207 0027527 27.8988 86.2443 15.24648776194729 FIREBIRD FU3 1 40377U 15003B 18130.65992215 .00002972 00000-0 12446-3 0 9992 2 40377 99.0908 24.9624 0131603 356.0500 3.9677 15.17103240180632 FIREBIRD FU4 1 40378U 15003C 18130.78091730 .00003144 00000-0 13126-3 0 9997 2 40378 99.0911 25.1632 0131806 355.5347 4.4694 15.17114015180656 GRIFEX 1 40379U 15003D 18130.74460866 .00001923 00000-0 87536-4 0 9994 2 40379 99.0943 21.4465 0138924 7.6683 352.6623 15.14250843180434 NO-84 1 40654U 15025D 18130.47155178 .00008631 00000-0 14374-3 0 02974 2 40654 054.9924 206.6086 0160589 014.7082 345.8528 15.39836211050035 NO-83 1 40655U 15025E 18130.31005117 .00025803 00000-0 27982-3 0 03414 2 40655 054.9753 154.7213 0114869 045.5288 315.4978 15.55571918050389 DEORBITSAIL 1 40719U 15032E 18130.77416957 .00000429 00000-0 68975-4 0 9995 2 40719 97.9491 24.8925 0016552 163.4054 196.7701 14.76409112152659 NUDT-PHONESAT 1 40900U 15049B 18130.81226267 .00002541 00000-0 11688-3 0 9998 2 40900 97.4418 139.4988 0014290 153.3247 206.8727 15.21169848146234 XW-2A 1 40903U 15049E 18130.89040923 .00002378 00000-0 60863-4 0 9990 2 40903 97.3878 165.3707 0014924 158.3356 201.8524 15.40355834148069 XW-2C 1 40906U 15049H 18130.80704043 .00000767 00000-0 44332-4 0 9997 2 40906 97.4602 134.9851 0015741 153.7465 206.4568 15.15144952145838 XW-2D 1 40907U 15049J 18130.82921623 .00000852 00000-0 48629-4 0 9993 2 40907 97.4575 134.7081 0015193 151.4201 208.7867 15.15292943145847 LILACSAT-2 1 40908U 15049K 18130.85701482 .00000413 00000-0 26627-4 0 9993 2 40908 97.4686 134.1422 0016751 153.4224 206.7870 15.13483843145720 XW-2F 1 40910U 15049M 18130.80694962 .00001260 00000-0 68006-4 0 9993 2 40910 97.4578 135.9337 0016009 147.6495 212.5723 15.16461110145793 XW-2B 1 40911U 15049N 18130.84535517 .00000846 00000-0 48411-4 0 9995 2 40911 97.4611 135.2477 0015085 151.8824 208.3226 15.15237994145742 DCBB 1 40912U 15049P 18130.78897580 .00001750 00000-0 87468-4 0 9990 2 40912 97.4515 138.6468 0016460 136.2222 276.2103 15.18670845145994 TW-1C 1 40926U 15051B 18130.67264197 .00012558 00000-0 23755-3 0 9994 2 40926 97.1874 173.1982 0011801 61.3664 57.6007 15.48455383147505 TW-1A 1 40928U 15051D 18130.74413366 .00004099 00000-0 10962-3 0 9995 2 40928 97.1888 165.4707 0013876 95.6938 346.9390 15.38526035147027 IO-86 1 40931U 15052B 18129.15263013 .00000518 00000-0 -16901-4 0 9998 2 40931 6.0086 68.3825 0012659 182.6487 177.4343 14.76572733141224 LQSat 1 40958U 15057A 18130.73705481 .00000035 00000-0 13213-4 0 9994 2 40958 97.9411 204.6975 0019610 96.3730 263.9712 14.73029376139338 AO-85 1 40967U 15058D 18129.97878901 .00000099 00000-0 28924-4 0 03222 2 40967 064.7767 307.2629 0203432 325.4808 033.3221 14.75703369048010 ATHENOXAT-1 1 41168U 15077C 18129.78782561 .00002448 00000-0 97791-4 0 9990 2 41168 14.9896 301.3350 0011615 227.4518 246.0299 15.12700865132550 ChubuSat-2 1 41338U 16012B 18130.51587587 .00000354 00000-0 21027-4 0 9996 2 41338 031.0022 192.9886 0013836 060.0211 300.1796 14.99968927122176 ChubuSat-3 1 41339U 16012C 18130.60088623 .00000328 00000-0 18867-4 0 9993 2 41339 31.0104 191.0990 0013645 66.6327 293.5748 15.00157400122173 Horyu-4 1 41340U 16012D 18130.48088268 .00000537 00000-0 34369-4 0 9993 2 41340 031.0041 186.8816 0014076 079.0347 281.1871 15.00965045122221 OUFTI-1 1 41458U 16025C 18130.72969477 .00000715 00000-0 42026-4 0 9991 2 41458 98.1374 191.5726 0168714 273.4785 84.7159 15.04539411111808 e-st@r-II 1 41459U 16025D 18130.79652306 .00000538 00000-0 33009-4 0 9993 2 41459 98.1381 191.4987 0169657 273.8957 84.2869 15.04279391111808 AAUSAT4 1 41460U 16025E 18130.74363040 .00001643 00000-0 89750-4 0 9996 2 41460 98.1334 191.8861 0160580 270.1410 88.1364 15.05674794111858 LO-87 1 41557U 16033B 18130.84599721 .00001569 00000-0 59791-4 0 9999 2 41557 97.4363 215.1356 0012371 293.3212 66.6726 15.28170227108451 NuSat2 1 41558U 16033C 18130.78369197 .00001558 00000-0 59552-4 0 9998 2 41558 97.4393 215.1650 0011614 291.2319 68.7679 15.28088312108437 Lapan A3 1 41603U 16040E 18130.74857618 .00000281 00000-0 16402-4 0 9992 2 41603 97.4140 192.9441 0014022 18.4241 129.5720 15.19552473104395 Swayam 1 41607U 16040J 18130.38854531 .00002131 00000-0 95844-4 0 9990 2 41607 97.4160 193.8982 0014169 18.6197 341.5555 15.22119506104353 Pratham 1 41783U 16059A 18130.72403912 .00000078 00000-0 24598-4 0 9992 2 41783 98.1205 192.8828 0032951 211.2468 148.6776 14.62918803 86489 AlSat 1N 1 41789U 16059G 18130.84958520 .00000080 00000-0 24360-4 0 9991 2 41789 98.1211 194.1535 0027707 202.4897 157.5083 14.64149354 86550 ScatSat 1 41790U 16059H 18130.58898856 .00000017 00000-0 15655-4 0 9996 2 41790 098.2634 179.0540 0017689 203.2267 156.8130 14.50870615085738 TY-1 1 41844U 16066D 18130.70041038 .00001927 00000-0 84338-4 0 9995 2 41844 97.4068 138.1654 0016032 162.2479 324.0592 15.23144656 83179 Pegasus-1 1 41846U 16066F 18130.59736449 .00000334 00000-0 61512-4 0 9991 2 41846 098.7571 158.2731 0368267 358.7142 001.3063 14.37319693078500 CAS-2T 1 41847U 16066G 18130.67459845 .00000112 00000-0 27872-4 0 9998 2 41847 98.7534 158.7779 0366158 356.1205 3.7159 14.37887471 78939 TO-89 1 41932U 98067KU 18130.36624889 .00037301 00000-0 25913-3 0 9995 2 41932 051.6358 175.4168 0005458 039.5038 320.6358 15.74020778074808 AOBA-V3LOX3 1 41935U 98067KX 18130.59469758 .00047355 00000-0 28554-3 0 9999 2 41935 51.6359 170.8891 0005550 38.4624 321.6771 15.77158479 74988 EO-88 1 42017U 17008BX 18130.74600247 .00001926 00000-0 81676-4 0 9993 2 42017 97.4508 196.0225 0007576 140.7998 219.3789 15.24324011 68362 HAVELSAT 1 42700U 98067LH 18130.72681744 .00025874 00000-0 22152-3 0 9996 2 42700 51.6353 186.0822 0003904 78.9983 281.1452 15.69250908 56138 SOMP2 1 42701U 98067LJ 18130.69335615 .00026368 00000-0 23292-3 0 9991 2 42701 51.6353 187.3600 0003984 79.6815 280.4630 15.68473771 56108 PHOENIX 1 42706U 98067LP 18130.70661913 .00021316 00000-0 19516-3 0 9993 2 42706 51.6353 187.4548 0002452 24.5189 335.5924 15.67735475 56027 X-CubeSat 1 42707U 98067LQ 18130.71890674 .00029656 00000-0 24862-3 0 9998 2 42707 51.6325 185.9763 0002940 21.7526 338.3596 15.69684395 56038 qbee 1 42708U 98067LR 18130.39181361 .00031268 00000-0 26999-3 0 9994 2 42708 51.6360 188.3357 0002770 22.4743 337.6374 15.68937024 55937 ZA-AeroSat 1 42713U 98067LU 18130.57699861 .00020869 00000-0 20109-3 0 9991 2 42713 051.6347 190.3289 0003445 020.3846 339.7287 15.66477219055632 LINK 1 42714U 98067LV 18130.64771560 .00054314 00000-0 34524-3 0 9995 2 42714 51.6277 181.6817 0005413 13.7364 346.3782 15.75901987 55866 UPSat 1 42716U 98067LX 18130.41453682 .00048842 00000-0 35422-3 0 9991 2 42716 51.6337 184.7084 0003285 49.6331 310.4954 15.72901614 55825 SpaceCube 1 42717U 98067LY 18130.60811136 .00027943 00000-0 24214-3 0 9991 2 42717 51.6335 187.5183 0002926 66.2093 293.9210 15.68912405 55045 Hoopoe 1 42718U 98067LZ 18130.37932314 .00041887 00000-0 33042-3 0 9990 2 42718 51.6346 186.7433 0003098 54.1646 305.9640 15.70976140 55037 Challenger 1 42721U 98067MA 18130.61913625 .00089595 00000-0 46332-3 0 9999 2 42721 51.6285 178.4732 0006462 41.5245 318.6247 15.80305675 54860 NJUST-1 1 42722U 98067MB 18130.61609329 .00018358 00000-0 18368-3 0 9990 2 42722 51.6357 191.3564 0005653 75.8547 284.3076 15.65620192 54691 UNSW-EC0 1 42723U 98067MC 18130.58549941 .00040141 00000-0 30993-3 0 9993 2 42723 51.6368 185.8960 0005234 59.7479 300.4036 15.71497776 54741 DUTHsat 1 42724U 98067MD 18130.60114753 .00074854 00000-0 41453-3 0 9997 2 42724 51.6336 179.9032 0005560 42.1537 317.9891 15.78875862 54749 LO-90 1 42725U 98067ME 18130.58510686 .00027376 00000-0 24945-3 0 9994 2 42725 51.6356 189.6446 0004695 69.1009 291.0490 15.67683638 54619 nSIGHT1 1 42726U 98067MF 18130.67693057 .00008654 00000-0 10712-3 0 9994 2 42726 51.6383 196.3089 0005610 87.3201 272.8434 15.60975354 54541 SNUSAT 1B 1 42727U 98067MG 18130.72203574 .00025028 00000-0 22929-3 0 9999 2 42727 51.6338 189.0142 0007119 43.7222 316.4337 15.67588719 54602 QBITO 1 42728U 98067MH 18130.63797689 .00031651 00000-0 27189-3 0 9997 2 42728 51.6375 187.7890 0003034 50.8472 309.2794 15.69055796 54453 Aalto-2 1 42729U 98067MJ 18130.68658134 .00031264 00000-0 26615-3 0 9997 2 42729 51.6352 187.3159 0003076 50.3445 309.7823 15.69282357 54479 SUSat 1 42730U 98067MK 18130.58274021 .00025874 00000-0 23221-3 0 9997 2 42730 51.6352 188.8661 0003033 54.7250 305.4030 15.68098155 54439 i-INSPIRE II 1 42731U 98067ML 18130.71890126 .00038901 00000-0 29387-3 0 9997 2 42731 51.6337 184.4737 0007071 29.9970 330.1432 15.72017683 54554 PolyITAN-2-SAU 1 42732U 98067MM 18130.71945729 .00029766 00000-0 25123-3 0 9991 2 42732 51.6349 186.7552 0006931 31.0984 329.0422 15.69496795 54525 ExAlta-1 1 42734U 98067MP 18130.71410027 .00042147 00000-0 31239-3 0 9994 2 42734 51.6322 184.4243 0007256 47.3803 312.7806 15.72428838 54501 Aoxiang-1 1 42735U 98067MQ 18130.71597577 .00020474 00000-0 20188-3 0 9991 2 42735 51.6348 190.5034 0006151 74.2791 285.8883 15.65900231 55841 BeEagleSat 1 42736U 98067MR 18130.61304895 .00023066 00000-0 21609-3 0 9999 2 42736 51.6349 189.8077 0005905 71.1546 289.0090 15.67097415 54535 CAS-4B 1 42759U 17034B 18130.75154632 .00000314 00000-0 32962-4 0 9992 2 42759 43.0190 288.7798 0009781 238.8751 247.0166 15.09272561 49797 CAS-4A 1 42761U 17034D 18130.84195005 .00000284 00000-0 31056-4 0 9993 2 42761 43.0189 288.0791 0010264 239.4272 107.4415 15.09348499 49797 UCLSat 1 42765U 17036A 18130.40076488 .00001645 00000-0 75542-4 0 9994 2 42765 97.4041 190.8535 0011225 201.1750 158.9023 15.21750188 48962 NIUSat 1 42766U 17036B 18130.61845894 .00001261 00000-0 61012-4 0 9994 2 42766 097.4042 190.4250 0015764 189.5287 170.5652 15.20309227048826 LituanicaSAT 2 1 42768U 17036D 18130.44544705 .00002894 00000-0 13246-3 0 9992 2 42768 097.4055 190.5191 0015565 192.1326 167.9538 15.21207736048826 Aalto 1 1 42775U 17036L 18130.52678094 .00001052 00000-0 50948-4 0 9994 2 42775 097.4034 190.5307 0013942 189.6933 170.4035 15.20679766048772 URSA MAIOR 1 42776U 17036M 18130.38361362 .00001199 00000-0 57477-4 0 9992 2 42776 97.4041 190.4337 0013773 190.3635 169.7319 15.20752672 48755 Max Valier Sat 1 42778U 17036P 18130.55646105 .00001258 00000-0 59374-4 0 9998 2 42778 097.4065 190.8889 0012293 193.8688 166.2212 15.21224217048788 Pegasus 1 42784U 17036V 18130.23623998 .00001576 00000-0 72891-4 0 9997 2 42784 097.4043 190.6268 0011729 202.2690 157.8038 15.21563940048748 NUDATSat 1 42787U 17036Y 18130.43133288 .00002445 00000-0 10969-3 0 9993 2 42787 097.4050 190.9851 0011366 200.6744 159.4034 15.22097796048622 SUCHAI 1 1 42788U 17036Z 18130.39724896 .00001842 00000-0 84084-4 0 9990 2 42788 097.4045 190.8680 0011369 201.2694 158.8070 15.21816027048842 SKCUBE 1 42789U 17036AA 18130.33007142 .00001704 00000-0 78083-4 0 9992 2 42789 097.4043 190.7996 0011199 201.3790 158.6980 15.21785943048759 VZLUSAT 1 1 42790U 17036AB 18130.61840441 .00002075 00000-0 93517-4 0 9993 2 42790 097.4047 191.1774 0010937 200.1222 159.9585 15.22121997048805 VENTA 1 1 42791U 17036AC 18130.44444008 .00001673 00000-0 76591-4 0 9990 2 42791 097.4042 190.9492 0010827 201.4963 158.5820 15.21842895048767 Robusta 1B 1 42792U 17036AD 18130.23647213 .00001742 00000-0 79445-4 0 9999 2 42792 097.4042 190.7625 0010744 202.5252 157.5514 15.21924593048759 D-SAT 1 42794U 17036AF 18130.45845108 .00000381 00000-0 38535-4 0 9991 2 42794 097.5949 186.5326 0128255 048.3275 312.8837 14.90847395048109 BIRD-J 1 42820U 98067MU 18130.59853282 .00023331 00000-0 22631-3 0 9990 2 42820 51.6347 191.9675 0004222 14.5798 345.5319 15.66230914 47969 BIRD-G 1 42821U 98067MV 18130.38360988 .00025614 00000-0 25238-3 0 9996 2 42821 51.6349 193.5329 0004104 16.6675 343.4455 15.65778421 47903 BIRD-M 1 42822U 98067MW 18130.62581381 .00022450 00000-0 22011-3 0 9997 2 42822 51.6351 192.1541 0004128 18.1648 341.9494 15.65988531 47946 BIRD-B 1 42823U 98067MX 18130.62384297 .00022290 00000-0 21785-3 0 9994 2 42823 51.6356 192.1560 0006203 37.8938 322.2493 15.66061946 47943 BIRD-N 1 42824U 98067MY 18130.57972712 .00022780 00000-0 22407-3 0 9990 2 42824 051.6361 192.6254 0006118 038.0844 322.0583 15.65886827047950 TechnoSat 1 42829U 17042E 18130.77739095 .00000093 00000-0 14879-4 0 9994 2 42829 97.5999 34.5335 0013477 329.8896 30.1547 14.90808686 44755 TOMSK-TPU 120 1 42910U 98067MZ 18130.61998312 .00016390 00000-0 18098-3 0 9996 2 42910 051.6350 195.8510 0006502 060.4206 299.7435 15.63197164041500 TANYUSHA 1 1 42911U 98067NA 18130.68931396 .00018697 00000-0 19905-3 0 9993 2 42911 51.6357 194.8487 0006192 54.0867 306.0702 15.64026931 41500 TANYUSHA 2 1 42912U 98067NB 18130.67898829 .00017733 00000-0 19281-3 0 9993 2 42912 51.6367 195.4988 0005429 64.4611 295.6944 15.63533944 41517 SFERA 2 1 42913U 98067NC 18130.53320455 .00041685 00000-0 34463-3 0 9996 2 42913 051.6337 190.7490 0004510 049.5308 310.6082 15.69842475041562 TNS 0-2 1 42914U 98067ND 18130.72426336 .00017027 00000-0 18940-3 0 9998 2 42914 51.6362 195.8335 0005518 60.0348 300.1193 15.62981494 41505 QIKCOM-1 1 42983U 98067NF 18130.70345907 .00003459 00000-0 55690-4 0 9994 2 42983 51.6394 203.9824 0004737 59.2262 300.9195 15.56003798 30386 AO-91 1 43017U 17073E 18130.50599992 .00001220 00000-0 10054-3 0 9992 2 43017 097.7060 063.2099 0260966 034.5672 327.2200 14.78020615025547 EcAMSat 1 43019U 98067NG 18130.66879344 .00005784 00000-0 86236-4 0 9990 2 43019 51.6394 203.7512 0005523 34.8720 325.2633 15.56695012112701 PICSAT 1 43132U 18004X 18130.71529183 .00001726 00000-0 77479-4 0 9999 2 43132 97.5370 193.2895 0008849 222.2994 137.7561 15.22538959 18011 AO-92 1 43137U 18004AC 18130.70568298 .00001235 00000-0 56200-4 0 9997 2 43137 97.5366 193.2985 0008354 224.4390 135.6177 15.22626423 18009 TianYi 2 1 43155U 18008A 18130.86880851 .00001222 00000-0 77932-4 0 9991 2 43155 97.5254 205.9755 0016207 272.8161 193.2274 15.10498288 16852 Zhou Enlai 1 43156U 18008B 18130.78004591 .00000687 00000-0 46211-4 0 9992 2 43156 97.5298 205.8595 0013318 270.0161 211.2836 15.09946615 16835 TianYi 6 1 43158U 18008D 18130.73326694 .00000967 00000-0 63931-4 0 9999 2 43158 97.5259 205.7112 0012213 266.5095 210.5627 15.09664667 16808 S-Net G 1 43186U 18014G 18129.77398100 .00000334 00000-0 34579-4 0 9994 2 43186 97.7279 38.7383 0009431 283.4632 76.5538 14.96437433 14577 S-Net H 1 43187U 18014H 18130.77692751 .00000157 00000-0 18963-4 0 9998 2 43187 97.7278 39.7265 0009441 279.6386 80.3768 14.96439083 14729 S-Net J 1 43188U 18014J 18130.77687111 .00000167 00000-0 19833-4 0 9991 2 43188 97.7280 39.7296 0009439 279.7204 80.2951 14.96439966 14727 S-Net K 1 43189U 18014K 18130.77694268 .00000163 00000-0 19473-4 0 9999 2 43189 97.7276 39.7261 0009429 279.6410 80.3746 14.96438801 13271 FMN 1 1 43192U 18015A 18130.64649318 .00002621 00000-0 11529-3 0 9990 2 43192 097.3498 260.3228 0015544 277.6667 082.2805 15.22649360014800 Shaonian Xing 1 43199U 18015H 18130.58480876 .00001877 00000-0 81220-4 0 9990 2 43199 097.3275 260.1223 0016283 291.5252 068.4253 15.23562276014814 /EX